TimeMST,TemperatureF,Dew PointF,Humidity,Sea Level PressureIn,VisibilityMPH,Wind Direction,Wind SpeedMPH,Gust SpeedMPH,PrecipitationIn,Events,Conditions,WindDirDegrees,DateUTC
12:53 AM,7.0,1.9,80,30.22,9.0,WNW,5.8,-,N/A,,Clear,300,2013-02-13 07:53:00
1:53 AM,10.9,5.0,77,30.17,10.0,Calm,Calm,-,N/A,,Clear,0,2013-02-13 08:53:00
2:53 AM,10.0,5.0,80,30.16,10.0,Calm,Calm,-,N/A,,Clear,0,2013-02-13 09:53:00
3:53 AM,12.0,6.1,77,30.14,10.0,North,6.9,-,N/A,,Clear,350,2013-02-13 10:53:00
4:53 AM,3.9,-0.0,84,30.17,8.0,ESE,9.2,-,N/A,,Clear,110,2013-02-13 11:53:00
5:53 AM,10.9,6.1,81,30.15,10.0,South,4.6,-,N/A,,Clear,180,2013-02-13 12:53:00
6:53 AM,16.0,9.0,74,30.16,10.0,NW,9.2,-,N/A,,Clear,310,2013-02-13 13:53:00
7:53 AM,19.0,10.0,68,30.14,10.0,East,6.9,-,N/A,,Clear,100,2013-02-13 14:53:00
8:53 AM,24.1,14.0,65,30.13,10.0,East,8.1,-,N/A,,Clear,90,2013-02-13 15:53:00
9:53 AM,28.9,16.0,58,30.11,10.0,ESE,4.6,-,N/A,,Clear,110,2013-02-13 16:53:00
10:53 AM,35.1,18.0,50,30.07,10.0,Variable,3.5,-,N/A,,Clear,0,2013-02-13 17:53:00
11:53 AM,34.0,21.9,61,30.08,10.0,SSW,4.6,-,N/A,,Clear,210,2013-02-13 18:53:00
12:53 PM,37.9,21.0,51,30.04,10.0,WSW,4.6,-,N/A,,Clear,250,2013-02-13 19:53:00
1:53 PM,41.0,21.9,47,30.02,10.0,WSW,3.5,-,N/A,,Clear,250,2013-02-13 20:53:00
2:53 PM,43.0,19.9,40,30.00,10.0,Calm,Calm,-,N/A,,Clear,0,2013-02-13 21:53:00
3:53 PM,39.9,21.0,47,30.02,10.0,SSW,3.5,-,N/A,,Clear,200,2013-02-13 22:53:00
4:53 PM,39.0,17.1,41,30.07,10.0,WNW,10.4,16.1,N/A,,Clear,290,2013-02-13 23:53:00
5:53 PM,37.0,16.0,42,30.06,10.0,WNW,13.8,-,N/A,,Clear,300,2013-02-14 00:53:00
6:53 PM,34.0,16.0,48,30.07,10.0,South,4.6,-,N/A,,Clear,190,2013-02-14 01:53:00
7:53 PM,33.1,14.0,46,30.08,10.0,SW,4.6,-,N/A,,Clear,220,2013-02-14 02:53:00
8:53 PM,30.9,14.0,50,30.07,10.0,NW,3.5,-,N/A,,Clear,320,2013-02-14 03:53:00
9:53 PM,30.0,12.0,47,30.05,10.0,West,6.9,-,N/A,,Clear,260,2013-02-14 04:53:00
10:53 PM,28.0,14.0,56,30.05,10.0,South,4.6,-,N/A,,Clear,190,2013-02-14 05:53:00
11:53 PM,27.0,12.9,56,30.06,10.0,SW,6.9,-,N/A,,Clear,230,2013-02-14 06:53:00